Regional Weather Roundup
Issued by NWS Sioux Falls, SD

Home | Current Version | Previous Version | Graphics & Text | Print | Product List | Glossary Off
Versions: 1 2 3 4 5 6 7 8 9 10 11 12 13 14 15 16 17 18 19 20 21 22 23 24 25 26 27 28 29 30 31 32 33 34 35 36 37 38 39 40 41 42 43 44 45 46 47 48 49 50

000
ASUS43 KFSD 270702
RWRFSD

WEATHER ROUNDUP FOR SE SOUTH DAKOTA/SW MINNESOTA/NW IOWA
NATIONAL WEATHER SERVICE SIOUX FALLS SD
200 AM CDT SAT AUG 27 2016

NOTE: "FAIR" INDICATES FEW OR NO CLOUDS BELOW 12,000 FEET WITH NO
SIGNIFICANT WEATHER AND OR OBSTRUCTIONS TO VISIBILITY.


SDZ038>040-050-052>070-270800-
SOUTHEAST SOUTH DAKOTA

CITY           SKY/WX    TMP DP  RH WIND       PRES   REMARKS
BROOKINGS      CLOUDY    61  58  90 SE8       30.04F
CHAMBERLAIN    CLOUDY    58  58  99 SE7       30.00F
HURON          CLOUDY    61  58  90 SE6       30.02F
MADISON        CLOUDY    61  61 100 S3        30.05F
MITCHELL       CLOUDY    64  60  87 S12       30.03F
SIOUX FALLS    HVY RAIN  63  61  93 S9        30.06S FOG
WINNER         FAIR      57  54  89 S8        30.01F
YANKTON        CLOUDY    63  59  88 E3        30.02F
$$

MNZ071-072-080-081-089-090-097-098-270800-
SOUTHWEST MINNESOTA

CITY           SKY/WX    TMP DP  RH WIND       PRES   REMARKS
FAIRMONT       CLOUDY    61  59  93 E6        30.08F
JACKSON          N/A     63  57  82 E7        30.08F
LUVERNE        LGT RAIN  61  57  88 E5        30.07F
MARSHALL       CLOUDY    62  59  90 S6        30.07
MONTEVIDEO     CLOUDY    63  57  82 S6        30.08S
REDWOOD FALLS  MOCLDY    61  57  87 SE5       30.06F
TRACY          CLOUDY    63  59  88 SE5       30.07F
WINDOM         RAIN      63  57  82 E6        30.07F
WORTHINGTON    CLOUDY    61  59  93 NE5       30.08F
$$

IAZ001>003-012>014-020>022-031-032-NEZ013-014-SDZ071-270800-
NORTHWEST IOWA

CITY           SKY/WX    TMP DP  RH WIND       PRES   REMARKS
CHEROKEE       CLOUDY    63  59  89 E3        30.04F
DENISON        CLOUDY    63  61  94 E5        30.02F FOG
ESTHERVILLE    CLOUDY    60  60 100 E5        30.06
LE MARS        CLOUDY    64  61  88 VRB3      30.04F
ORANGE CITY    CLOUDY    63  59  88 E3        30.05F
SHELDON        CLOUDY    63  61  94 E5        30.03F
SIOUX CITY     CLOUDY    65  62  90 SE9       30.02F
SPENCER        CLOUDY    62  57  83 E7        30.05F
STORM LAKE     CLOUDY    61  59  94 E6        30.05F
$$

ABBREVIATIONS USED IN REMARKS
   TC - TEMPERATURE IN CELSIUS
  WCI - WIND CHILL INDEX
   HX - HEAT INDEX
  VSB - VISIBILITY





USA.gov is the U.S. government's official web portal to all federal, state and local government web resources and services.